Date String (YYYY-MM-DD hh:mm:ss) UTC,Instrument flags,Ambient pressure (hPa),Sample flow (lpm),Bypass flow (lpm),Sample temperature (°C),Ambient temperature (°C),ASC tube jacket temperature (°C),LED temperature (°C),Box temperature (°C),Sample RH (%),Span deviation,Mass concentration (μg/m³),Mass concentration (μg/m³),Mass concentration (μg/m³)
DateTimeUTC,F1_M11,P_M11,Q1_M11,Q2_M11,T1_M11,T2_M11,T3_M11,T4_M11,T5_M11,U1_M11,ZSPAN_M11,X2_M11,X0_M11,X1_M11
2022-06-20 05:00:00,,0822.8,5.00,0.00,29.4,28.4,00.0,38.2,31.4,18.7,0000.0,0002.97,0005.45,0002.01
2022-06-20 05:01:00,,0822.8,5.00,0.00,29.4,28.5,00.0,38.2,31.4,18.8,0000.0,0002.99,0005.98,0002.02
2022-06-20 05:02:00,,0822.7,4.99,0.00,29.5,28.5,00.0,38.2,31.4,18.7,0000.0,0002.98,0006.00,0002.02
2022-06-20 05:03:00,,0822.8,4.99,0.00,29.5,28.6,00.0,38.3,31.5,18.6,0000.0,0002.97,0006.21,0002.03
2022-06-20 05:04:00,,0822.8,5.01,0.00,29.5,28.7,00.0,38.3,31.5,18.6,0000.0,0003.05,0006.35,0002.04
2022-06-20 05:05:00,,0822.8,5.00,0.00,29.6,28.6,00.0,38.3,31.5,18.4,0000.0,0003.07,0006.58,0002.05
2022-06-20 05:06:00,,0822.8,5.01,0.00,29.5,27.9,00.0,38.2,31.4,18.4,0000.0,0003.01,0006.94,0002.06
2022-06-20 05:07:00,,0822.8,5.01,0.00,29.5,27.4,00.0,38.2,31.2,18.4,0000.0,0003.03,0006.91,0002.08
2022-06-20 05:08:00,,0822.8,4.99,0.00,29.4,27.3,00.0,38.2,31.2,18.4,0000.0,0003.00,0006.85,0002.06
2022-06-20 05:09:00,,0822.9,5.01,0.00,29.4,27.4,00.0,38.2,31.2,18.4,0000.0,0003.03,0006.97,0002.05
2022-06-20 05:10:00,,0822.9,4.99,0.00,29.3,27.5,00.0,38.2,31.2,18.4,0000.0,0003.01,0006.86,0002.03
2022-06-20 05:11:00,,0822.9,5.00,0.00,29.3,27.6,00.0,38.2,31.2,18.4,0000.0,0002.96,0006.68,0002.02
2022-06-20 05:12:00,,0822.8,5.01,0.00,29.3,27.8,00.0,38.2,31.2,18.4,0000.0,0003.01,0006.10,0002.02
2022-06-20 05:13:00,,0822.8,5.01,0.00,29.4,27.9,00.0,38.2,31.2,18.4,0000.0,0003.06,0006.18,0002.00
2022-06-20 05:14:00,,0822.8,4.99,0.00,29.4,28.0,00.0,38.2,31.3,18.3,0000.0,0003.03,0005.93,0001.99
2022-06-20 05:15:00,,0822.8,5.00,0.00,29.4,28.1,00.0,38.2,31.3,18.3,0000.0,0002.96,0005.69,0001.98
2022-06-20 05:16:00,,0822.8,5.01,0.00,29.4,28.2,00.0,38.2,31.3,18.2,0000.0,0002.97,0005.59,0001.97
2022-06-20 05:17:00,,0822.9,5.00,0.00,29.4,28.3,00.0,38.2,31.4,18.2,0000.0,0002.96,0005.13,0001.96
2022-06-20 05:18:00,,0822.9,4.99,0.00,29.4,28.4,00.0,38.2,31.4,18.2,0000.0,0002.92,0005.04,0001.94
2022-06-20 05:19:00,,0823.0,4.99,0.00,29.5,28.4,00.0,38.2,31.4,18.2,0000.0,0002.91,0005.04,0001.93
2022-06-20 05:20:00,,0823.0,5.00,0.00,29.5,28.5,00.0,38.3,31.4,18.2,0000.0,0002.86,0005.28,0001.93
2022-06-20 05:21:00,,0823.0,5.00,0.00,29.5,28.6,00.0,38.3,31.5,18.2,0000.0,0002.76,0004.94,0001.91
2022-06-20 05:22:00,,0822.9,5.00,0.00,29.5,28.6,00.0,38.3,31.5,18.1,0000.0,0002.84,0005.11,0001.91
2022-06-20 05:23:00,,0823.0,5.01,0.00,29.6,28.7,00.0,38.3,31.5,18.1,0000.0,0002.84,0005.11,0001.93
2022-06-20 05:24:00,,0822.9,5.00,0.00,29.6,28.5,00.0,38.3,31.5,18.2,0000.0,0002.78,0005.11,0001.94
2022-06-20 05:25:00,,0822.9,5.01,0.00,29.5,27.7,00.0,38.2,31.3,18.2,0000.0,0002.80,0005.20,0001.95
2022-06-20 05:26:00,,0823.0,4.99,0.00,29.5,27.3,00.0,38.2,31.2,18.2,0000.0,0002.86,0005.39,0001.97
2022-06-20 05:27:00,,0823.0,4.99,0.00,29.4,27.3,00.0,38.2,31.2,18.3,0000.0,0002.85,0005.29,0001.98
2022-06-20 05:28:00,,0823.0,5.00,0.00,29.4,27.4,00.0,38.2,31.1,18.4,0000.0,0002.82,0005.21,0001.97
2022-06-20 05:29:00,,0822.9,5.01,0.00,29.4,27.5,00.0,38.2,31.2,18.4,0000.0,0002.82,0005.38,0001.97
2022-06-20 05:30:00,,0823.0,5.00,0.00,29.3,27.6,00.0,38.2,31.2,18.4,0000.0,0002.82,0005.50,0001.97
2022-06-20 05:31:00,,0822.9,4.99,0.00,29.3,27.8,00.0,38.2,31.2,18.4,0000.0,0002.84,0005.21,0001.98
2022-06-20 05:32:00,,0823.0,4.99,0.00,29.3,27.9,00.0,38.2,31.2,18.4,0000.0,0002.85,0005.22,0001.98
2022-06-20 05:33:00,,0822.9,5.00,0.00,29.4,28.0,00.0,38.2,31.3,18.4,0000.0,0002.85,0005.21,0001.98
2022-06-20 05:34:00,,0822.9,5.00,0.00,29.4,28.1,00.0,38.2,31.3,18.4,0000.0,0002.81,0005.06,0001.96
2022-06-20 05:35:00,,0822.9,5.00,0.00,29.4,28.2,00.0,38.2,31.3,18.3,0000.0,0002.82,0004.96,0001.95
2022-06-20 05:36:00,,0823.0,5.01,0.00,29.4,28.3,00.0,38.2,31.4,18.3,0000.0,0002.79,0004.82,0001.93
2022-06-20 05:37:00,,0823.0,5.00,0.00,29.4,28.4,00.0,38.2,31.4,18.3,0000.0,0002.72,0004.60,0001.92
2022-06-20 05:38:00,,0823.0,5.00,0.00,29.5,28.4,00.0,38.2,31.4,18.3,0000.0,0002.68,0004.56,0001.91
2022-06-20 05:39:00,,0823.0,5.01,0.00,29.5,28.5,00.0,38.3,31.4,18.3,0000.0,0002.67,0004.47,0001.93
2022-06-20 05:40:00,,0823.0,5.00,0.00,29.5,28.6,00.0,38.3,31.5,18.3,0000.0,0002.66,0004.19,0001.95
2022-06-20 05:41:00,,0823.0,5.01,0.00,29.5,28.6,00.0,38.3,31.5,18.4,0000.0,0002.69,0004.18,0001.97
2022-06-20 05:42:00,,0823.0,5.00,0.00,29.6,28.7,00.0,38.3,31.5,18.4,0000.0,0002.71,0004.21,0002.01
2022-06-20 05:43:00,,0823.0,5.00,0.00,29.6,28.7,00.0,38.3,31.6,18.2,0000.0,0002.81,0004.49,0002.03
2022-06-20 05:44:00,,0822.9,5.00,0.00,29.6,28.6,00.0,38.3,31.6,18.1,0000.0,0002.82,0004.53,0002.06
2022-06-20 05:45:00,,0823.0,5.00,0.00,29.6,27.8,00.0,38.3,31.4,18.1,0000.0,0002.78,0004.50,0002.08
2022-06-20 05:46:00,,0823.0,5.00,0.00,29.5,27.3,00.0,38.2,31.3,18.2,0000.0,0002.83,0004.97,0002.11
2022-06-20 05:47:00,,0823.0,5.01,0.00,29.5,27.3,00.0,38.2,31.2,18.2,0000.0,0002.91,0005.28,0002.13
2022-06-20 05:48:00,,0823.0,5.00,0.00,29.4,27.4,00.0,38.2,31.2,18.3,0000.0,0002.95,0005.36,0002.16
2022-06-20 05:49:00,,0823.0,5.01,0.00,29.4,27.5,00.0,38.2,31.2,18.4,0000.0,0002.99,0005.43,0002.20
2022-06-20 05:50:00,,0823.0,5.01,0.00,29.4,27.6,00.0,38.2,31.2,18.4,0000.0,0003.07,0005.59,0002.21
2022-06-20 05:51:00,,0823.0,5.00,0.00,29.4,27.8,00.0,38.2,31.2,18.3,0000.0,0003.12,0005.75,0002.21
2022-06-20 05:52:00,,0823.0,5.00,0.00,29.4,27.9,00.0,38.2,31.3,18.3,0000.0,0003.17,0005.95,0002.23
2022-06-20 05:53:00,,0823.0,5.00,0.00,29.4,28.0,00.0,38.2,31.3,18.3,0000.0,0003.17,0005.88,0002.22
2022-06-20 05:54:00,,0823.0,5.01,0.00,29.4,28.1,00.0,38.2,31.3,18.3,0000.0,0003.16,0005.81,0002.22
2022-06-20 05:55:00,,0822.9,5.00,0.00,29.4,28.2,00.0,38.2,31.3,18.4,0000.0,0003.16,0005.95,0002.23
2022-06-20 05:56:00,,0823.0,4.99,0.00,29.4,28.3,00.0,38.2,31.4,18.4,0000.0,0003.18,0005.99,0002.24
2022-06-20 05:57:00,,0823.1,5.00,0.00,29.5,28.4,00.0,38.3,31.4,18.4,0000.0,0003.17,0005.54,0002.25
2022-06-20 05:58:00,,0823.1,5.00,0.00,29.5,28.4,00.0,38.3,31.4,18.4,0000.0,0003.19,0005.41,0002.26
2022-06-20 05:59:00,,0823.1,5.00,0.00,29.5,28.5,00.0,38.3,31.5,18.4,0000.0,0003.21,0005.92,0002.27
